Presure
158 190 100 155 192 133 188 166 152 181 220 200 184 152 165 153 179 171 188 230 186 191 134 228 214 217 206 202 196 186 200 154 196 180 122 153 152 194 196 203 207 210 234
185 186 152 201 158 141 154 161 174 180 180 174 210 179 155 170 174 186 184 183 182 172 213 228 213 200 217 195 123 200 175 165 195 197 196 193 180 209 225 227 220 225 223
194 202 138 161 144 136 167 188 191 176 192 187 180 191 168 173 192 135 173 178 184 185 145 224 206 220 132 205 190 196 197 191 177 195 131 219 208 213 145 220 206 238 205
163 185 135 192 185 150 181 176 174 174 178 208 170 177 183 188 167 191 171 201 189 199 186 208 214 196 196 185 194 192 198 209 211 199 200 223 217 206 203 227 236 238 227
172 189 186 177 175 173 166 189 194 172 165 167 178 183 188 189 198 180 185 170 183 213 204 223 206 193 192 193 205 202 216 220 215 221 214 212 200 207 233 213 221 221 217
167 189 185 184 201 170 195 182 173 177 165 193 160 182 180 182 178 171 182 191 182 209 215 207 194 194 197 195 201 236 204 197 211 206 209 216 210 213 207 193 216 219 204
183 186 184 164 187 178 194 175 189 176 184 200 191 177 179 167 190 198 202 174 186 206 180 203 204 204 205 194 205 194 188 192 187 190 188 199 207 200 202 201 208 223 219
175 181 190 185 182 194 179 175 182 194 187 190 172 167 179 200 191 194 187 194 187 205 205 211 203 200 213 218 186 186 193 190 221 204 217 202 192 205 232 224 217 214 234
191 180 171 185 163 168 175 180 177 171 188 180 176 189 189 177 186 192 192 182 211 217 208 202 211 229 231 188 180 182 203 204 196 188 198 209 192 218 223 217 224 229 228
169 172 173 166 175 176 176 189 190 194 190 178 191 187 182 205 180 191 186 211 217 227 211 236 229 208 184 206 212 188 184 190 204 209 195 183 237 235 235 230 230 233 235
180 175 181 182 172 184 191 191 187 172 169 189 170 188 196 181 201 184 225 218 213 219 213 207 181 179 184 175 217 192 204 208 206 191 206 209 228 230 232 226 233 228 230
193 188 187 184 175 182 184 192 175 208 182 174 192 204 222 185 197 227 216 229 220 219 176 182 191 178 204 192 211 203 180 203 203 205 220 229 243 247 239 228 227 229 215
180 185 189 180 183 182 176 211 177 185 190 194 202 192 220 224 212 213 207 230 197 181 171 202 205 187 172 207 188 182 200 201 206 203 228 241 242 201 222 227 230 212 217
191 181 186 182 191 194 178 191 165 189 213 191 207 231 230 222 232 242 246 195 225 200 174 206 180 210 205 200 204 203 205 205 208 255 233 239 228 230 235 237 216 224 221
207 218 216 195 206 197 217 171 208 201 192 210 225 226 226 193 201 184 182 211 213 181 186 169 204 202 196 190 203 208 206 208 253 242 239 239 237 242 230 226 224 223 227
219 223 215 202 205 198 194 189 213 210 217 217 206 216 202 237 198 205 207 205 204 199 195 187 192 192 202 204 207 211 237 232 244 234 228 229 216 231 228 226 223 231 236
223 225 227 220 220 217 221 215 207 204 208 220 217 196 195 222 214 193 202 198 190 199 166 165 184 200 204 234 252 235 209 176 227 225 214 212 228 213 231 236 237 241 245
221 220 215 213 216 218 218 214 213 214 208 195 203 199 191 202 191 196 197 196 196 188 198 196 201 215 244 208 203 183 190 190 217 200 216 205 229 226 221 231 238 241 243
239 247 247 245 229 225 214 213 236 236 226 235 205 203 202 198 201 206 196 190 194 200 205 230 230 209 209 194 193 205 204 205 189 222 225 205 220 228 229 235 240 242 243
235 231 228 237 233 228 230 225 218 216 220 206 205 193 205 193 182 186 178 194 207 194 183 196 198 196 214 216 212 216 214 214 212 211 213 215 218 226 224 236 237 244 247
232 231 242 233 231 234 225 225 219 216 214 197 186 209 194 176 186 212 221 188 176 195 198 193 213 199 212 211 214 214 215 210 215 220 208 220 227 227 237 237 241 246 252
248 237 235 228 195 240 224 218 233 185 193 221 173 207 227 194 201 200 201 203 205 205 206 211 224 207 212 182 220 231 203 214 220 218 221 220 230 234 242 239 237 249 264
211 216 183 231 213 199 176 208 214 210 189 207 181 180 178 189 192 218 225 216 224 223 222 214 215 213 203 186 222 226 221 225 219 217 227 219 227 237 243 241 248 266 244
190 198 173 194 189 198 209 180 201 189 194 193 194 185 193 195 189 203 199 210 209 208 207 220 222 197 201 215 233 236 225 215 222 225 227 233 233 241 245 249 252 253 248
184 188 200 178 178 165 181 196 198 188 171 189 201 195 202 199 200 190 202 202 211 208 205 213 210 218 206 217 219 227 227 227 216 229 228 238 244 241 261 258 265 250 257
178 173 210 210 203 207 201 194 179 201 201 200 198 183 187 200 201 204 210 205 208 213 215 212 211 217 217 215 217 232 231 224 231 231 235 239 243 258 273 248 245 259 271
Wind_Speed
52 52 34 50 66 56 46 48 54 32 38 43 39 59 57 62 62 61 53 43 58 67 63 48 50 49 51 60 58 62 57 71 62 68 83 81 85 77 80 83 85 86 79
54 58 54 52 35 46 40 41 40 46 38 47 41 45 60 56 50 51 56 60 62 65 51 51 52 56 47 58 73 56 64 73 68 69 72 75 79 83 82 78 80 81 81
58 54 58 33 47 50 33 50 51 45 53 47 49 69 60 58 66 57 58 65 72 65 66 49 54 47 69 54 64 65 69 70 74 76 81 78 77 78 83 82 78 74 77
50 51 55 57 52 57 47 41 49 54 45 65 52 47 57 64 59 70 64 78 75 64 69 59 53 62 54 58 62 66 73 76 74 74 74 70 73 75 77 71 71 72 75
34 61 59 49 50 41 51 65 62 39 51 51 57 64 67 66 78 69 74 59 73 68 79 48 57 61 61 66 69 71 71 63 65 66 70 74 73 77 69 76 77 73 74
37 65 62 66 72 39 72 54 42 51 49 77 58 66 63 67 64 63 80 75 71 77 47 55 66 70 68 69 69 54 60 67 62 67 67 64 68 66 67 74 76 78 74
67 74 67 37 67 52 75 51 75 61 80 83 82 62 69 57 91 93 86 58 82 66 68 68 69 70 70 63 55 61 68 72 76 76 77 74 66 68 70 75 78 87 87
45 64 72 69 65 75 64 53 69 86 83 80 58 54 76 94 88 87 81 89 84 74 72 68 70 69 68 62 59 66 69 75 72 71 69 71 77 82 96 84 88 83 91
75 62 47 74 43 46 69 75 74 62 91 73 72 89 90 67 85 88 87 75 80 69 71 71 69 61 56 59 68 72 67 71 78 80 78 85 80 97 93 94 94 93 93
46 53 59 43 71 73 72 95 94 97 91 74 93 83 76 91 74 93 81 76 70 58 69 53 49 47 59 65 62 74 80 78 75 85 76 82 98 97 96 97 94 90 91
75 68 81 86 63 92 87 92 89 56 57 91 57 94 90 70 95 77 65 63 67 60 55 55 60 63 71 74 75 77 70 82 88 83 96 101 106 100 92 95 87 92 94
91 92 90 90 73 94 92 99 64 87 72 59 100 91 67 73 88 58 61 53 60 53 60 66 64 69 67 74 77 76 81 86 90 99 106 111 90 85 82 90 93 93 95
68 78 90 75 77 77 67 80 68 65 91 91 94 89 72 64 71 61 59 59 62 65 70 59 74 70 71 73 77 78 80 91 99 100 111 92 85 83 94 92 90 97 101
93 78 90 82 90 92 78 65 52 94 86 82 88 63 64 69 64 61 59 61 62 57 70 66 63 75 82 85 88 90 95 102 108 81 100 88 92 89 89 89 97 100 104
86 71 70 92 80 91 76 66 90 83 85 86 74 69 66 55 59 52 54 61 56 73 65 74 76 85 80 69 92 105 103 106 81 83 85 86 87 88 90 94 99 102 107
68 69 76 83 84 91 89 74 82 83 72 74 69 71 67 66 61 62 62 64 66 62 71 64 71 77 97 100 107 108 95 88 80 81 85 84 92 89 93 97 101 106 109
53 57 57 57 62 64 62 62 68 73 68 66 67 65 68 65 67 61 69 67 60 75 67 72 83 96 102 92 76 79 91 75 83 89 95 97 89 100 97 101 104 106 107
54 58 56 57 59 59 59 63 65 65 65 61 66 66 66 68 65 70 71 72 74 70 84 87 93 97 80 92 86 80 89 92 91 96 95 100 92 94 95 97 101 104 107
49 52 53 53 59 60 62 63 57 58 60 57 63 66 65 65 68 71 67 68 77 84 87 87 79 89 89 92 94 97 94 100 94 94 94 103 96 97 99 101 103 105 107
46 48 49 47 50 54 55 55 53 56 55 59 59 59 61 62 63 68 66 74 82 76 76 80 85 89 90 90 92 94 96 97 98 100 99 101 99 100 102 104 106 108 109
42 41 43 44 47 47 49 50 50 52 54 57 59 60 61 64 66 72 70 72 71 79 82 83 87 89 92 91 93 94 93 95 97 96 101 99 100 102 104 104 108 111 113
35 40 41 41 49 44 47 49 51 55 56 53 58 59 64 65 68 71 75 79 82 85 86 88 88 89 90 88 92 90 92 95 94 96 95 98 102 103 106 107 110 115 117
43 44 51 37 44 47 56 50 50 53 57 55 63 63 67 67 71 73 66 71 71 73 77 83 84 86 90 93 90 90 92 90 94 96 97 95 100 105 108 109 114 118 113
50 47 49 54 58 53 48 59 54 63 61 61 64 69 70 71 75 75 79 77 78 78 81 83 85 92 93 94 91 90 92 96 98 101 102 99 103 108 110 113 116 116 115
61 60 53 63 59 58 71 63 62 69 67 70 67 70 71 76 78 80 80 82 82 84 86 86 88 90 94 96 97 97 97 99 97 103 106 106 110 108 110 113 117 117 119
65 70 61 61 59 59 60 64 71 68 69 68 70 76 79 77 79 82 82 84 86 88 90 91 92 93 95 96 98 102 101 101 105 103 110 109 115 120 111 109 115 121 124
Wind_Direction
249 250 267 268 260 253 263 257 249 287 287 294 272 262 264 268 281 282 305 313 293 316 272 301 296 296 289 283 289 286 292 280 287 285 280 280 279 287 290 291 292 293 298
237 253 254 263 236 260 275 245 296 282 271 271 290 274 271 272 281 308 305 299 303 298 298 299 298 291 292 291 276 293 288 279 293 294 291 291 288 291 296 299 299 300 299
260 262 247 224 260 267 253 286 294 295 302 295 283 301 269 282 307 271 297 300 304 302 276 297 299 290 275 302 289 299 299 290 288 292 283 297 294 297 288 299 299 300 298
246 269 254 275 273 260 295 287 293 294 287 295 276 292 300 302 277 306 298 311 307 306 304 294 296 291 300 287 295 293 294 295 294 293 293 299 299 297 299 299 303 305 300
274 269 277 257 272 283 277 290 296 280 285 272 295 294 303 294 305 304 312 292 309 306 312 304 306 300 298 298 297 295 299 301 300 301 297 295 295 295 307 307 306 302 302
257 273 280 282 274 273 287 291 286 274 268 300 265 299 300 304 305 300 309 310 308 314 298 303 301 296 296 296 301 303 299 297 299 296 298 303 300 301 294 293 308 307 298
267 270 276 248 282 287 288 284 296 295 300 299 300 295 297 289 305 307 309 301 312 304 304 294 291 291 295 296 297 295 291 290 290 290 292 290 290 291 295 293 306 314 315
281 280 276 282 284 283 283 286 294 294 296 295 291 286 299 302 306 310 309 309 309 299 295 292 292 293 293 290 286 289 286 285 319 289 311 290 287 303 315 309 314 310 312
266 277 275 278 263 278 290 289 293 285 294 294 297 302 304 304 304 307 306 306 299 291 293 294 293 293 288 281 282 283 296 299 284 289 289 314 299 311 314 315 313 311 311
278 275 282 276 285 285 286 289 288 290 293 294 295 298 300 300 303 303 304 298 292 287 291 290 291 290 284 298 303 287 287 287 304 318 297 290 314 314 313 310 311 312 310
268 278 276 276 283 279 284 286 288 287 292 296 297 298 297 301 301 307 295 291 296 294 293 288 282 283 283 289 322 282 298 319 317 302 313 316 316 314 311 311 308 309 310
266 267 272 275 279 280 281 284 289 287 292 295 295 296 297 304 301 297 293 287 292 286 285 282 280 294 295 279 324 315 290 313 315 316 314 314 309 306 305 307 308 308 309
273 271 274 278 279 281 283 281 287 288 292 292 293 299 296 299 301 298 293 287 285 286 289 298 313 277 291 321 282 286 312 316 314 313 312 309 308 309 308 305 304 308 307
267 269 272 276 276 276 280 281 290 288 290 293 295 289 293 290 290 299 304 280 308 289 287 312 297 314 321 313 313 315 315 315 314 308 309 308 307 303 304 302 305 304 305
262 264 264 272 270 276 276 280 283 285 290 293 294 296 296 297 297 285 278 304 318 269 301 299 316 319 311 307 314 315 314 311 308 306 307 306 307 306 304 303 304 305 303
260 263 265 269 271 275 278 284 284 287 289 290 295 297 300 299 298 303 306 310 311 316 308 302 313 314 314 314 311 308 306 307 307 308 306 307 307 307 306 304 303 303 304
270 268 267 272 273 278 281 282 283 285 289 292 295 296 296 301 303 302 311 314 309 316 292 292 307 312 310 305 304 306 312 314 309 308 308 308 306 308 304 303 303 302 302
270 273 275 274 275 278 278 277 281 281 286 292 292 291 297 301 305 309 309 310 307 309 313 312 306 303 302 307 311 312 311 313 307 310 308 310 307 307 306 306 306 304 305
266 270 271 269 271 273 278 281 280 282 284 280 287 291 294 298 298 298 301 307 311 306 302 298 300 307 305 308 306 305 306 306 308 306 308 306 307 309 309 309 308 306 306
267 270 274 271 270 274 272 278 281 280 281 282 284 285 290 291 297 303 307 304 298 302 305 304 304 304 301 302 303 304 304 304 306 307 306 307 308 309 309 310 308 307 307
274 273 270 273 276 276 281 281 282 281 281 283 285 288 286 298 294 294 295 299 305 300 300 304 300 301 301 303 303 303 303 304 306 305 306 310 311 311 310 310 311 311 309
280 278 277 276 279 276 275 280 278 288 284 285 294 290 291 292 292 296 297 296 297 297 297 297 298 300 301 307 301 302 304 301 305 305 308 309 312 312 311 312 311 311 309
285 284 285 285 278 281 290 282 280 281 291 289 293 295 297 297 298 294 297 299 301 303 302 299 300 301 302 306 304 304 303 304 304 304 307 306 310 314 313 312 312 309 309
288 271 285 280 283 281 281 296 277 282 282 287 292 293 298 298 299 295 297 296 299 299 299 304 302 299 301 304 309 306 306 305 306 306 307 312 311 315 314 312 310 308 309
273 271 280 286 295 300 285 288 289 289 296 294 294 294 293 292 292 297 297 298 300 299 299 302 300 303 301 305 306 308 307 306 304 308 309 313 314 313 311 311 309 309 310
275 282 300 297 294 293 286 288 294 289 287 288 288 294 293 291 293 296 298 299 301 302 302 300 301 303 303 304 305 309 307 306 308 308 311 314 314 314 312 312 310 310 312